Location: Newark
(41.0400°S, 62.7845°W)
Time: 13:28:35
(UTC+00:00)

STARLINK-3086 - Pass Details

Date: 06 June 2022
Orbit: 570 x 574 km, 70.0° (Epoch: 30 June)

Event Time Altitude Azimuth Distance (km) Brightness Sun altitude
Rises 09:42:27 0° 8° (N) 2,774 7.5 -19.6°
Reaches altitude 10° 09:45:00 10° 23° (NNE) 1,885 6.8 -19.2°
Maximum altitude 09:48:19 23° 75° (ENE) 1,256 6.3 -18.6°
Drops below altitude 10° 09:51:41 10° 127° (SE) 1,905 6.9 -17.9°
Sets 09:54:16 0° 141° (SE) 2,812 7.6 -17.5°
